www.pogodaiklimat.ru

Архив погоды в Архангельске (Архангельская область, Россия)

Время
(UTC), дата
21 12.04
00 13.04
03 13.04
06 13.04
09 13.04
12 13.04
15 13.04
18 13.04
21 13.04
00 14.04
03 14.04
06 14.04
09 14.04
12 14.04
15 14.04
18 14.04
21 14.04
00 15.04
03 15.04
06 15.04
09 15.04
12 15.04
15 15.04
18 15.04
21 15.04
00 16.04
03 16.04
06 16.04
09 16.04
12 16.04
15 16.04
18 16.04
21 16.04
00 17.04
03 17.04
06 17.04
09 17.04
12 17.04
15 17.04
18 17.04
21 17.04
00 18.04
03 18.04
06 18.04
09 18.04
12 18.04
15 18.04
18 18.04
21 18.04
00 19.04
03 19.04
06 19.04
09 19.04
12 19.04
15 19.04
18 19.04
Ветер
(напр.,м/с)
Видим. Явления Облачность Т
(С)
Тd
(С)
f
(%)
Тe
(С)
Тes
(С)
Комфортность P
(гПа)
Po
(гПа)
Тmin
(С)
Tmax
(С)
R
(мм)
R24
(мм)
S
(см)
С 2 23 км 10/10 660 м
[Sc]
-1.8 -5.7 75 -6 -6 по сезону 1009.3 1008.3
С 1 20 км 3/3 600 м
[Sc]
-3.6 -8.1 71 -6 -6 по сезону 1011.4 1010.3
С 1 10 км 8/8 1080 м
[Sc]
-5.4 -6.0 96 -8 -8 прохладно 1012.4 1011.4 -6.5 29
СЗ 1 10 км 9/9 750 м
[Sc]
-1.5 -7.3 65 -3 -3 по сезону 1013.3 1012.3
З 1 10 км 10/10 1000 м
[Sc]
-0.1 -6.4 62 -2 -2 по сезону 1013.0 1012.0
Ю 1 10 км 8/4 1000 м
[Sc Ac cast Ci fib]
+1.5 -7.6 51 0 +3 по сезону 1012.6 1011.6
В 1 10 км 10/0
[As trans]
+1.3 -7.3 53 0 +1 по сезону 1011.0 1010.0 +2.4
ЮВ 2 23 км 6/0
[Ci sp]
-1.0 -6.3 67 -4 -4 по сезону 1009.6 1008.6
ЮВ 2 21 км 10/0
[Ac und]
-0.9 -5.8 69 -4 -4 по сезону 1008.2 1007.2
ЮВ 3 20 км 10/10 960 м
[Sc]
-1.0 -4.4 78 -6 -6 по сезону 1005.9 1004.9
ЮВ 3 10 км 9/0
[Ac lent]
-0.7 -3.3 83 -5 -5 по сезону 1003.6 1002.6 -1.3 27
ЮВ 3 10 км 10/0
[Ac und]
+1.3 -2.5 76 -3 -2 по сезону 1001.3 1000.3
ЮВ 3 10 км в посл. час ливневой дождь 10/3 1000 м
[Sc Ac und]
+3.4 -1.4 71 -0 +1 по сезону 999.7 998.7
ЮВ 3 10 км {ливн. дождь} 10/8 800 м
[Cb cap Ac und]
+5.1 +0.8 74 +2 +2 по сезону 998.3 997.3
ЮВ 1 10 км в посл. час ливневой дождь 10/10 720 м
[Cb cap]
+4.2 +2.9 91 +3 +3 по сезону 996.7 995.7 +5.6 0.4
ЮВ 2 11 км слаб. ливневой дождь 10/10 420 м
[Cb cap]
+3.2 +3.2 100 -0 -0 по сезону 995.9 994.9
ЮВ 2 1600 м дымка {ливн. дождь, морось} 10/10 120 м
[St]
+3.0 +3.0 100 -0 -0 тепло 994.7 993.7
ЮВ 2 500 м туман, небо не видно {ливн. дождь, морось} ?/? +3.1 +3.1 100 -0 -0 тепло 993.6 992.6
ЮВ 2 500 м туман, небо не видно ?/? +2.9 +2.9 100 -1 -1 по сезону 992.4 991.4 +2.8 0.5 25
В 2 500 м туман, небо не видно ?/? +3.9 +3.9 100 +1 +1 по сезону 991.4 990.4
В 2 10 км {туман} 10/10 500 м
[Sc]
+5.8 +5.7 99 +3 +3 по сезону 991.1 990.1
В 3 10 км {туман} 10/10 800 м
[Sc]
+6.9 +4.5 85 +4 +4 по сезону 990.8 989.9
СВ 2 4000 м слаб. ливневой дождь 10/10 570 м
[Cb cap]
+4.6 +4.6 100 +2 +2 по сезону 990.8 989.8 +7.9 2
СВ 3 7000 м слаб. дождь {ливн. дождь} 10/10 300 м
[Frnb Ns]
+3.9 +3.9 100 -0 -0 по сезону 990.3 989.3
СВ 3 5000 м слаб. дождь 10/10 330 м
[Frnb Ns]
+3.5 +3.5 100 -1 -1 по сезону 988.9 987.9
СВ 3 5000 м слаб. дождь 10/10 330 м
[Frnb Ns]
+3.2 +3.1 99 -1 -1 тепло 988.1 987.1
СВ 3 4000 м слаб. дождь 10/10 330 м
[Frnb Ns]
+3.0 +3.0 100 -1 -1 по сезону 988.1 987.1 +3.0 10 16
СВ 4 4000 м слаб. дождь 10/10 360 м
[Frnb Ns]
+2.3 +2.3 100 -3 -3 по сезону 988.8 987.8 +2.3
СВ 3 10 км {дождь} 10/10 270 м
[St]
+2.3 +2.2 99 -2 -2 по сезону 990.2 989.3
СВ 4 2000 м ливневой снег {дождь} 10/10 480 м
[Cb cap]
+0.1 +0.1 100 -6 -6 холодно 992.8 991.8
С 4 4000 м слаб. ливневой снег 10/10 500 м
[Cb cap]
-2.5 -3.0 96 -9 -9 очень холодно 994.9 993.8 +3.0 2
С 4 8000 м слаб. ливневой снег 10/10 300 м
[Cb cap]
-4.8 -6.3 89 -11 -11 очень холодно 997.0 996.0
С 3 8000 м слаб. ливневой снег 10/10 300 м
[Cb cap]
-6.3 -8.1 87 -12 -12 холодно 998.6 997.5
С 3 7000 м слаб. снег {ливн. снег} 10/10 330 м
[Frnb Ns]
-7.5 -8.5 93 -13 -13 холодно 999.9 998.8
СВ 4 4000 м слаб. снег 10/10 270 м
[Frnb Ns]
-8.4 -10.9 82 -15 -15 очень холодно 1001.2 1000.2 -8.4 2 17
СВ 3 1000 м сильн. снег 10/10 300 м
[Frnb Ns]
-8.3 -10.4 85 -14 -14 очень холодно 1002.8 1001.8 -8.7
СВ 3 1000 м сильн. снег 10/10 800 м
[Ns]
-7.9 -10.9 79 -14 -14 очень холодно 1004.1 1003.1
СВ 3 1000 м сильн. снег 10/10 750 м
[Ns]
-7.4 -9.1 88 -13 -13 очень холодно 1005.7 1004.6
СВ 3 1000 м сильн. снег 10/10 720 м
[Ns]
-7.7 -10.1 83 -13 -13 очень холодно 1007.4 1006.3 -6.9 5
СВ 3 8000 м слаб. снег 10/10 270 м
[Frnb Ns]
-8.5 -10.4 86 -14 -14 очень холодно 1008.8 1007.7
СВ 2 9000 м слаб. снег 10/8 300 м
[Frnb As op]
-9.4 -11.2 87 -14 -14 очень холодно 1009.8 1008.7
СВ 2 3500 м снег 10/10 300 м
[Frnb Ns]
-10.7 -12.4 87 -15 -15 очень холодно 1011.3 1010.2
СВ 3 2000 м снег 10/10 300 м
[Frnb Ns]
-11.4 -13.3 86 -17 -17 очень холодно 1013.0 1011.9 -11.4 3 20
СВ 3 4000 м слаб. снег 10/8 360 м
[Frnb As op]
-10.6 -14.2 75 -17 -16 очень холодно 1014.6 1013.6
В 2 4000 м слаб. снег 10/10 750 м
[Ns]
-8.5 -13.5 67 -13 -13 очень холодно 1015.9 1014.8
В 2 4000 м слаб. снег 10/10 660 м
[Ns]
-6.9 -11.9 67 -11 -11 очень холодно 1017.2 1016.2
ЮВ 2 10 км {снег} 10/10 840 м
[Sc]
-6.6 -10.7 73 -11 -11 очень холодно 1018.3 1017.2 -6.0 1
штиль 0 21 км в посл. час ливневой снег 10/10 800 м
[Sc]
-7.3 -9.5 84 -8 -8 прохладно 1019.7 1018.6
СВ 1 6000 м слаб. ливневой снег 10/10 330 м
[Cb cap]
-7.4 -9.2 87 -10 -10 холодно 1020.0 1018.9
СВ 2 20 км {ливн. снег} 10/10 750 м
[Sc]
-8.2 -11.5 77 -13 -13 очень холодно 1020.5 1019.4
СВ 2 10 км 10/10 800 м
[Sc]
-8.6 -11.7 78 -13 -13 очень холодно 1020.5 1019.4 -8.6 0.2 20
СВ 3 10 км 10/10 720 м
[Sc]
-6.2 -11.7 65 -12 -12 очень холодно 1019.5 1018.5
В 3 10 км 10/10 1200 м
[Sc]
-3.7 -9.9 62 -9 -9 холодно 1018.7 1017.6
СВ 4 10 км 10/10 1080 м
[Sc]
-2.7 -9.4 60 -8 -8 холодно 1016.4 1015.3
СВ 5-10 {12} 10 км 10/10 750 м
[St]
-2.9 -11.6 51 -9 -9 холодно 1014.4 1013.4 -2.5
СВ 5 {12} 17 км позёмок {метель} 10/0
[Ac und]
-4.3 -11.7 56 -11 -11 очень холодно 1012.4 1011.4
Местоположение метеостанции Архангельск (Архангельская область, Россия): широта 64.50 долгота 40.73 высота над уровнем моря 8 м.
В архиве по умолчанию представлена погода в Архангельске за последнюю неделю. Архивные данные за месяц целиком и за предыдущие месяцы, начиная с января 2011 года, Вы можете получить, выбрав интересующий диапазон дат из раскрывающегося списка и нажав кнопку "Найти!".
*Определитесь, кто Вы:
Внимание! Время в таблицах - всемирное. Для получения местного времени необходимо прибавить поправку, которая равна 3 ч.
Некоторые строки с данными для отдельных станций могут быть выделены курсивом. Это означает, что фактические данные отсутствуют по различным причинам, а приведенные значения являются расчетными модельными данными для данного пункта наблюдений.
Смотрите также архив погоды в соседних городах и на ближайших метеорологических станциях:
Партнеры нашего сайта:      
Пояснения к столбцам:
  • Ветер - указаны скорость ветра в м/с - средняя за 10 мин, порывы в срок и между сроками (в фигурных скобках) и направление, откуда дует ветер: С - северный,
  • СВ - северо-восточный, В - восточный, ЮВ - юго-восточный, Ю - южный, ЮЗ - юго-западный, З - западный, СЗ - северо-западный.
  • Видимость - горизонтальная дальность видимости в метрах или километрах. При видимости от 1 до 10 км при отсутствии осадков обычно наблюдается дымка, при ухудшении видимости до 1 км и менее - туман. В сухую погоду видимость может ухудшаться дымом, пылью или мглою.
  • Явления - указаны атмосферные явления, наблюдавшиеся в срок или в последний час перед сроком; фигурными скобками обозначены явления, наблюдавшиеся между сроками (за 1-3 часа до срока); квадратными скобками обозначены град или гололедные отложения с указанием их диаметра в мм.
  • Облачность - указаны через наклонную черту общая и нижняя облачность в баллах и высота нижней границы облаков в метрах; квадратными скобками обозначены формы облаков: Ci - перистые, Cs - перисто-слоистые, Cc - перисто-кучевые, Ac - высококучевые, As - высокослоистые, Sc - слоисто-кучевые, Ns - слоисто-дождевые, Cu - кучевые, Cb - кучево-дождевые. Подробнее классификацию облаков см. в Атласе облаков (PDF).
  • T - Температура воздуха - температура, измеренная на высоте 2 м над землей.
  • Td - Температура точки росы - температура, при понижении до которой содержащийся в воздухе водяной пар достигнет насыщения.
  • f - Относительная влажность воздуха - влажноcть воздуха, измеренная на высоте 2 м над землей.
  • Te - Эффективная температура - температура, которую ощущает одетый по сезону человек в тени. Характеристика душности погоды. При расчете учитывается влияние влажности воздуха и скорости ветра на теплоощущения человека.
  • Tes - Эффективная температура на солнце - температура, которую ощущает человек, с поправкой на солнечный нагрев. Характеристика знойности погоды. Зависит от высоты солнца над горизонтом, облачности и скорости ветра. Ночью, в пасмурную погоду, а также при ветре 12 м/с и более поправка равна нулю.
  • P - Атмосферное давление - приведенное к уровню моря атмосферное давление.
  • Po - Атмосферное давление - измеренное на уровне метеостанции атмосферное давление.
  • Tmin - Минимальная температура - минимум температуры воздуха на высоте 2 м над землей.
  • Tmax - Максимальная температура - максимум температуры воздуха на высоте 2 м над землей.
  • R - Количество осадков - Количество выпавших осадков за период времени, мм. При наведении курсора мыши на число - период времени, за который выпало указанное количество осадков.
  • R24 - Количество осадков - Количество выпавших осадков за 24 часа, мм.
  • S - Снежный покров - Высота снежного покрова, см. При наведении курсора мыши на число - состояние снежного покрова и степень покрытия местности в баллах.